TimeEDT,TemperatureF,Dew PointF,Humidity,Sea Level PressureIn,VisibilityMPH,Wind Direction,Wind SpeedMPH,Gust SpeedMPH,PrecipitationIn,Events,Conditions,WindDirDegrees,DateUTC
12:51 AM,57.9,52.0,81,29.99,10.0,Calm,Calm,-,N/A,,Clear,0,2012-09-22 04:51:00
1:51 AM,57.0,51.1,81,29.97,10.0,South,4.6,-,N/A,,Clear,170,2012-09-22 05:51:00
2:51 AM,57.0,51.1,81,29.96,10.0,SSE,5.8,-,N/A,,Clear,160,2012-09-22 06:51:00
3:51 AM,57.0,52.0,83,29.94,10.0,Variable,5.8,-,N/A,,Clear,0,2012-09-22 07:51:00
4:51 AM,57.0,53.1,87,29.94,10.0,South,5.8,-,N/A,,Clear,170,2012-09-22 08:51:00
5:51 AM,57.0,54.0,89,29.94,10.0,SSE,6.9,-,N/A,,Partly Cloudy,160,2012-09-22 09:51:00
6:51 AM,59.0,54.0,83,29.94,10.0,SSE,8.1,-,N/A,,Scattered Clouds,150,2012-09-22 10:51:00
7:14 AM,59.0,53.6,82,29.94,10.0,South,8.1,-,N/A,,Mostly Cloudy,170,2012-09-22 11:14:00
7:51 AM,60.1,54.0,80,29.92,10.0,SSE,11.5,18.4,N/A,,Overcast,160,2012-09-22 11:51:00
8:51 AM,60.8,55.4,82,29.90,10.0,South,12.7,20.7,N/A,,Mostly Cloudy,170,2012-09-22 12:51:00
9:51 AM,64.0,55.9,75,29.88,10.0,South,12.7,25.3,N/A,,Mostly Cloudy,170,2012-09-22 13:51:00
10:03 AM,64.4,55.4,73,29.87,10.0,South,19.6,31.1,N/A,,Scattered Clouds,170,2012-09-22 14:03:00
10:51 AM,66.0,55.9,70,29.85,10.0,South,23.0,33.4,N/A,,Scattered Clouds,170,2012-09-22 14:51:00
11:33 AM,66.2,57.2,73,29.85,10.0,South,15.0,28.8,N/A,,Mostly Cloudy,190,2012-09-22 15:33:00
11:51 AM,66.9,57.0,70,29.85,10.0,South,19.6,28.8,N/A,,Mostly Cloudy,180,2012-09-22 15:51:00
12:51 PM,66.9,57.9,73,29.84,10.0,South,12.7,27.6,N/A,,Mostly Cloudy,170,2012-09-22 16:51:00
1:08 PM,68.0,57.2,68,29.83,10.0,South,17.3,23.0,N/A,,Scattered Clouds,170,2012-09-22 17:08:00
1:51 PM,70.0,57.9,65,29.81,10.0,South,18.4,27.6,N/A,,Scattered Clouds,170,2012-09-22 17:51:00
2:51 PM,71.1,59.0,66,29.80,10.0,South,15.0,27.6,N/A,,Scattered Clouds,180,2012-09-22 18:51:00
3:51 PM,71.1,60.1,68,29.79,10.0,South,16.1,25.3,N/A,,Scattered Clouds,170,2012-09-22 19:51:00
4:51 PM,72.0,60.1,66,29.77,10.0,South,13.8,24.2,N/A,,Scattered Clouds,170,2012-09-22 20:51:00
5:51 PM,70.0,61.0,73,29.77,10.0,South,13.8,23.0,N/A,,Scattered Clouds,180,2012-09-22 21:51:00
6:31 PM,66.2,57.2,73,29.81,8.0,West,12.7,25.3,0.00,Rain,Light Rain,260,2012-09-22 22:31:00
6:44 PM,62.6,57.2,82,29.81,2.0,SW,10.4,-,0.14,Rain,Rain,220,2012-09-22 22:44:00
6:51 PM,62.1,59.0,90,29.81,1.8,South,5.8,-,0.24,Rain,Rain,190,2012-09-22 22:51:00
7:04 PM,62.6,59.0,88,29.82,6.0,South,4.6,-,0.02,Rain,Light Rain,180,2012-09-22 23:04:00
7:51 PM,61.0,59.0,93,29.83,6.0,West,3.5,-,0.09,Rain,Light Rain,270,2012-09-22 23:51:00
8:17 PM,60.8,57.2,88,29.85,5.0,WNW,3.5,-,0.08,Rain,Rain,300,2012-09-23 00:17:00
8:42 PM,60.8,57.2,88,29.85,5.0,Calm,Calm,-,0.14,Rain,Rain,0,2012-09-23 00:42:00
8:51 PM,60.1,57.0,90,29.85,5.0,Calm,Calm,-,0.16,Rain,Rain,0,2012-09-23 00:51:00
9:51 PM,60.1,57.9,93,29.85,6.0,Calm,Calm,-,0.05,Rain,Light Rain,0,2012-09-23 01:51:00
10:51 PM,60.1,57.0,90,29.86,10.0,Calm,Calm,-,0.02,Rain,Light Rain,0,2012-09-23 02:51:00
11:51 PM,59.0,55.9,90,29.85,10.0,Calm,Calm,-,0.00,,Overcast,0,2012-09-23 03:51:00